Home > Weather > Des Moines > Past weeks

Flag for USA Past Weather in Des Moines, Iowa, USA — Yesterday and Last 2 Weeks

Now
74 °F

Scattered clouds.


Feels Like: 75 °F
Forecast: 66 / 89 °F
Wind: 5 mph from Southeast

Location: Des Moines International Airport

Current Time: Jul 27, 2016 at 8:40:07 AM

Latest Report: Jul 27, 2016 at 7:54 AM


Visibility: 10 mi

Pressure: 29.96 "Hg

Humidity: 76%

Dew Point: 66 °F

Location of Des MoinesLocation

Past Weather in Des Moines — Graph

°F

Des Moines Temperature Yesterday

Maximum temperature yesterday: 86 °F (at 1:54 PM)
Minimum temperature yesterday: 69 °F (at 5:54 AM)
Average temperature yesterday: 79 °F

High & Low Weather Summary for the Past Weeks

 TemperatureHumidityPressure
High96 °F (Jul 21, 2:54 PM)94% (Jul 13, 3:54 AM)30.21 "Hg (Jul 13, 3:54 AM)
Low60 °F (Jul 15, 5:54 AM)36% (Jul 25, 2:54 PM)29.77 "Hg (Jul 23, 7:54 PM)
Average79 °F73%29.97 "Hg
* Reported Jul 12 6:54 AM — Jul 27 6:54 AM, Des Moines, Weather by CustomWeather, © 2016

Note: Actual official high and low records may vary slightly from our data, if they occured in-between our weather recording intervals... More about our weather records

Advertising

Des Moines Weather History for the Previous 24 Hours

Scroll right to see more
 ConditionsComfort  
Time TempWeatherWind HumidityBarometerVisibility
6:54 AM
Wed, Jul 27
70 °FPartly cloudy.No wind87%29.97 "Hg10 mi
5:54 AM71 °FPassing clouds.No wind84%29.96 "Hg10 mi
4:54 AM71 °FPassing clouds.No wind84%29.98 "Hg10 mi
3:54 AM71 °FPassing clouds.No wind81%29.98 "Hg10 mi
2:54 AM73 °FClear.5 mph76%29.97 "Hg10 mi
1:54 AM73 °FPassing clouds.5 mph76%29.97 "Hg10 mi
12:54 AM75 °FClear.5 mph71%29.98 "Hg10 mi
11:54 PM
Tue, Jul 26
76 °FClear.No wind69%29.99 "Hg10 mi
10:54 PM78 °FClear.3 mph64%29.99 "Hg10 mi
9:54 PM77 °FPassing clouds.3 mph66%29.99 "Hg10 mi
8:54 PM80 °FPassing clouds.8 mph62%29.97 "Hg10 mi
7:54 PM82 °FPassing clouds.8 mph58%29.99 "Hg10 mi
6:54 PM84 °FPassing clouds.8 mph53%29.99 "Hg10 mi
5:54 PM86 °FPassing clouds.8 mph46%29.99 "Hg10 mi
4:54 PM86 °FPassing clouds.12 mph46%29.99 "Hg10 mi
3:54 PM86 °FScattered clouds.8 mph48%29.99 "Hg10 mi
2:54 PM86 °FScattered clouds.9 mph48%30.01 "Hg10 mi
1:54 PM86 °FScattered clouds.8 mph46%30.03 "Hg10 mi
12:54 PM85 °FPassing clouds.7 mph50%30.04 "Hg10 mi
11:54 AM85 °FPassing clouds.3 mph51%30.05 "Hg10 mi
10:54 AM83 °FPassing clouds.8 mph50%30.05 "Hg10 mi
9:54 AM82 °FPassing clouds.3 mph56%30.06 "Hg10 mi
8:54 AM78 °FPassing clouds.No wind66%30.06 "Hg10 mi
Weather by CustomWeather, © 2016

See weather overviewHow to use our weather pages